Flag for U.S.A. Weather past 2 weeks in Durham, North Carolina, U.S.A.

Now
91 °F

Scattered clouds.


Feels Like: 97 °F
Forecast: 72 / 92 °F
Wind: 8 mph from Southeast

Location: Raleigh-Durham International Airport

Current Time: Aug 4, 2015 at 2:42:40 PM

Latest Report: Aug 4, 2015 at 1:51 PM


Visibility: 10 mi

Pressure: 29.95 "Hg

Humidity: 50%

Dew point: 70 °F

Location of DurhamLocation

Historic Weather in Durham — Graph

°F

Durham temperature yesterday

Maximum temperature yesterday: 94 °F (at 3:51 PM)
Minimum temperature yesterday: 70 °F (at 2:51 AM)
Average temperature yesterday: 82 °F

Past Weeks' High & Low Weather Summary

 TemperatureHumidityPressure
High94 °F (Jul 30, 3:51 PM)97% (Jul 21, 8:51 PM)30.04 "Hg (Jul 21, 8:51 PM)
Low64 °F (Jul 25, 5:51 AM)29% (Aug 1, 3:51 PM)29.68 "Hg (Jul 21, 5:51 PM)
Average80 °F69%29.93 "Hg
* Reported Jul 20 12:51 PM — Aug 4 12:51 PM, Durham, Weather by CustomWeather, © 2015

Note: Actual official high and low records may vary slightly from our data, if they occured in-between our weather recording intervals... More about our weather records

Advertising

Durham weather history for previous 24 hours

 ConditionsComfort  
Time TempWeatherWind HumidityBarometerVisibility
12:51 PM
Tue, Aug 4
92 °FScattered clouds.6 mph52%29.97 "Hg10 mi
11:51 AM89 °FScattered clouds.5 mph57%29.98 "Hg10 mi
10:51 AM86 °FScattered clouds.10 mph63%30.01 "Hg10 mi
9:51 AM83 °FScattered clouds.7 mph72%30.00 "Hg10 mi
8:51 AM81 °FScattered clouds.7 mph79%30.00 "Hg10 mi
7:51 AM77 °FPartly sunny.5 mph88%29.98 "Hg9 mi
6:51 AM75 °FLow clouds.No wind90%29.98 "Hg7 mi
5:51 AM73 °FPassing clouds.3 mph94%29.97 "Hg8 mi
4:51 AM74 °FPassing clouds.6 mph91%29.96 "Hg8 mi
3:51 AM75 °FPassing clouds.6 mph88%29.94 "Hg10 mi
2:51 AM76 °FPassing clouds.7 mph82%29.94 "Hg10 mi
1:51 AM77 °FPassing clouds.10 mph79%29.95 "Hg10 mi
12:51 AM79 °FPassing clouds.9 mph74%29.95 "Hg10 mi
11:51 PM
Mon, Aug 3
80 °FPassing clouds.14 mph67%29.95 "Hg10 mi
10:51 PM82 °FPassing clouds.14 mph63%29.93 "Hg10 mi
9:51 PM83 °FPassing clouds.10 mph63%29.91 "Hg10 mi
8:51 PM85 °FScattered clouds.6 mph61%29.89 "Hg10 mi
7:51 PM87 °FScattered clouds.5 mph55%29.87 "Hg10 mi
6:51 PM90 °FScattered clouds.7 mph43%29.87 "Hg10 mi
5:51 PM93 °FScattered clouds.8 mph38%29.87 "Hg10 mi
4:51 PM94 °FScattered clouds.9 mph40%29.87 "Hg10 mi
3:51 PM94 °FBroken clouds.9 mph37%29.88 "Hg10 mi
2:51 PM93 °FBroken clouds.8 mph42%29.89 "Hg10 mi
Weather by CustomWeather, © 2015

See weather overviewHow to use our weather pages